Time,TemperatureF,DewpointF,PressureIn,WindDirection,WindDirectionDegrees,WindSpeedMPH,WindSpeedGustMPH,Humidity,HourlyPrecipIn,Conditions,Clouds,dailyrainin,SoftwareType,DateUTC
2013-01-29 00:07:00,50.1,42.0,30.25,WNW,292,7.0,-999.0,73,-99.99,,,0.00,weatherlink.com 1.10,2013-01-29 05:07:00,
2013-01-29 00:22:00,50.4,43.0,30.24,WNW,284,5.0,-999.0,76,-99.99,,,0.00,weatherlink.com 1.10,2013-01-29 05:22:00,
2013-01-29 00:37:00,49.9,44.0,30.25,West,266,9.0,-999.0,79,-99.99,,,0.00,weatherlink.com 1.10,2013-01-29 05:37:00,
2013-01-29 00:52:00,50.2,44.0,30.24,WNW,295,4.0,-999.0,79,-99.99,,,0.00,weatherlink.com 1.10,2013-01-29 05:52:00,
2013-01-29 01:07:00,49.9,44.0,30.24,West,276,6.0,-999.0,80,-99.99,,,0.00,weatherlink.com 1.10,2013-01-29 06:07:00,
2013-01-29 01:22:00,50.7,44.0,30.24,West,278,6.0,-999.0,79,-99.99,,,0.00,weatherlink.com 1.10,2013-01-29 06:22:00,
2013-01-29 01:37:00,50.4,44.0,30.24,WNW,302,3.0,-999.0,78,-99.99,,,0.00,weatherlink.com 1.10,2013-01-29 06:37:00,
2013-01-29 01:52:00,50.1,43.0,30.24,West,266,16.0,-999.0,77,-99.99,,,0.00,weatherlink.com 1.10,2013-01-29 06:52:00,
2013-01-29 02:07:00,50.5,44.0,30.24,WNW,296,5.0,-999.0,77,-99.99,,,0.00,weatherlink.com 1.10,2013-01-29 07:07:00,
2013-01-29 02:22:00,50.5,44.0,30.24,WNW,285,5.0,-999.0,79,-99.99,,,0.00,weatherlink.com 1.10,2013-01-29 07:22:00,
2013-01-29 02:37:00,51.0,45.0,30.23,WNW,293,5.0,-999.0,80,-99.99,,,0.00,weatherlink.com 1.10,2013-01-29 07:37:00,
2013-01-29 02:52:00,51.3,44.0,30.23,West,277,12.0,-999.0,77,-99.99,,,0.00,weatherlink.com 1.10,2013-01-29 07:52:00,
2013-01-29 03:07:00,51.7,44.0,30.22,WNW,300,7.0,-999.0,75,-99.99,,,0.00,weatherlink.com 1.10,2013-01-29 08:07:00,
2013-01-29 03:22:00,51.9,44.0,30.23,West,270,4.0,-999.0,74,-99.99,,,0.00,weatherlink.com 1.10,2013-01-29 08:22:00,
2013-01-29 03:37:00,51.9,43.0,30.23,West,273,5.0,-999.0,73,-99.99,,,0.00,weatherlink.com 1.10,2013-01-29 08:37:00,
2013-01-29 03:52:00,51.9,44.0,30.22,West,269,5.0,-999.0,74,-99.99,,,0.00,weatherlink.com 1.10,2013-01-29 08:52:00,
2013-01-29 04:07:00,52.3,45.0,30.22,NW,308,12.0,-999.0,75,-99.99,,,0.00,weatherlink.com 1.10,2013-01-29 09:07:00,
2013-01-29 04:22:00,52.2,44.0,30.22,West,269,9.0,-999.0,73,-99.99,,,0.00,weatherlink.com 1.10,2013-01-29 09:22:00,
2013-01-29 04:37:00,51.1,42.0,30.24,WNW,292,11.0,-999.0,70,-99.99,,,0.00,weatherlink.com 1.10,2013-01-29 09:37:00,
2013-01-29 04:52:00,50.7,41.0,30.23,West,276,4.0,-999.0,70,-99.99,,,0.00,weatherlink.com 1.10,2013-01-29 09:52:00,
2013-01-29 05:07:00,50.4,41.0,30.23,West,269,5.0,-999.0,69,-99.99,,,0.00,weatherlink.com 1.10,2013-01-29 10:07:00,
2013-01-29 05:23:00,51.1,40.0,30.24,WSW,247,6.0,-999.0,67,-99.99,,,0.00,weatherlink.com 1.10,2013-01-29 10:23:00,
2013-01-29 05:38:00,52.0,41.0,30.24,WNW,298,7.0,-999.0,66,-99.99,,,0.00,weatherlink.com 1.10,2013-01-29 10:38:00,
2013-01-29 05:53:00,51.9,41.0,30.24,WNW,294,9.0,-999.0,66,-99.99,,,0.00,weatherlink.com 1.10,2013-01-29 10:53:00,
2013-01-29 06:08:00,52.2,41.0,30.24,WSW,257,11.0,-999.0,65,-99.99,,,0.00,weatherlink.com 1.10,2013-01-29 11:08:00,
2013-01-29 06:23:00,52.9,41.0,30.23,WNW,282,6.0,-999.0,64,-99.99,,,0.00,weatherlink.com 1.10,2013-01-29 11:23:00,
2013-01-29 06:38:00,52.8,41.0,30.23,NNW,333,7.0,-999.0,64,-99.99,,,0.00,weatherlink.com 1.10,2013-01-29 11:38:00,
2013-01-29 06:53:00,53.3,41.0,30.23,WNW,292,6.0,-999.0,64,-99.99,,,0.00,weatherlink.com 1.10,2013-01-29 11:53:00,
2013-01-29 07:08:00,53.5,40.0,30.23,West,269,5.0,-999.0,60,-99.99,,,0.00,weatherlink.com 1.10,2013-01-29 12:08:00,
2013-01-29 07:23:00,53.5,38.0,30.23,WNW,286,12.0,-999.0,57,-99.99,,,0.00,weatherlink.com 1.10,2013-01-29 12:23:00,
2013-01-29 07:38:00,53.6,39.0,30.22,WNW,288,5.0,-999.0,59,-99.99,,,0.00,weatherlink.com 1.10,2013-01-29 12:38:00,
2013-01-29 07:53:00,53.6,39.0,30.22,NW,304,4.0,-999.0,59,-99.99,,,0.00,weatherlink.com 1.10,2013-01-29 12:53:00,
2013-01-29 08:08:00,53.9,41.0,30.22,WNW,297,6.0,-999.0,61,-99.99,,,0.00,weatherlink.com 1.10,2013-01-29 13:08:00,
2013-01-29 08:23:00,53.9,39.0,30.22,WNW,298,5.0,-999.0,57,-99.99,,,0.00,weatherlink.com 1.10,2013-01-29 13:23:00,
2013-01-29 08:38:00,53.2,38.0,30.23,West,265,3.0,-999.0,57,-99.99,,,0.00,weatherlink.com 1.10,2013-01-29 13:38:00,
2013-01-29 08:53:00,52.5,39.0,30.23,West,277,2.0,-999.0,61,-99.99,,,0.00,weatherlink.com 1.10,2013-01-29 13:53:00,
2013-01-29 09:08:00,52.8,40.0,30.24,SSW,193,2.0,-999.0,62,-99.99,,,0.00,weatherlink.com 1.10,2013-01-29 14:08:00,
2013-01-29 09:23:00,53.5,40.0,30.23,West,275,4.0,-999.0,61,-99.99,,,0.00,weatherlink.com 1.10,2013-01-29 14:23:00,
2013-01-29 09:38:00,54.2,41.0,30.23,WSW,252,1.0,-999.0,61,-99.99,,,0.00,weatherlink.com 1.10,2013-01-29 14:38:00,
2013-01-29 09:53:00,54.5,41.0,30.23,West,277,0.0,-999.0,61,-99.99,,,0.00,weatherlink.com 1.10,2013-01-29 14:53:00,
2013-01-29 10:08:00,54.8,41.0,30.23,West,277,2.0,-999.0,61,-99.99,,,0.00,weatherlink.com 1.10,2013-01-29 15:08:00,
2013-01-29 10:23:00,55.6,42.0,30.23,West,276,0.0,-999.0,61,-99.99,,,0.00,weatherlink.com 1.10,2013-01-29 15:23:00,
2013-01-29 10:38:00,56.7,42.0,30.23,South,190,1.0,-999.0,59,-99.99,,,0.00,weatherlink.com 1.10,2013-01-29 15:38:00,
2013-01-29 10:53:00,58.0,42.0,30.23,SW,232,1.0,-999.0,56,-99.99,,,0.00,weatherlink.com 1.10,2013-01-29 15:53:00,
2013-01-29 11:08:00,60.5,44.0,30.22,South,185,0.0,-999.0,54,-99.99,,,0.00,weatherlink.com 1.10,2013-01-29 16:08:00,
2013-01-29 11:23:00,59.9,45.0,30.20,SSE,151,1.0,-999.0,58,-99.99,,,0.00,weatherlink.com 1.10,2013-01-29 16:23:00,
2013-01-29 11:38:00,59.3,45.0,30.18,SSE,153,0.0,-999.0,59,-99.99,,,0.00,weatherlink.com 1.10,2013-01-29 16:38:00,
2013-01-29 11:53:00,58.7,44.0,30.19,SSE,153,0.0,-999.0,58,-99.99,,,0.00,weatherlink.com 1.10,2013-01-29 16:53:00,
2013-01-29 12:08:00,58.9,45.0,30.18,South,176,0.0,-999.0,60,-99.99,,,0.00,weatherlink.com 1.10,2013-01-29 17:08:00,
2013-01-29 12:23:00,59.8,45.0,30.18,West,269,0.0,-999.0,58,-99.99,,,0.00,weatherlink.com 1.10,2013-01-29 17:23:00,
2013-01-29 12:38:00,61.0,45.0,30.17,West,269,0.0,-999.0,57,-99.99,,,0.00,weatherlink.com 1.10,2013-01-29 17:38:00,
2013-01-29 12:53:00,62.0,45.0,30.16,West,269,0.0,-999.0,55,-99.99,,,0.00,weatherlink.com 1.10,2013-01-29 17:53:00,
2013-01-29 13:08:00,62.1,45.0,30.15,West,269,1.0,-999.0,53,-99.99,,,0.00,weatherlink.com 1.10,2013-01-29 18:08:00,
2013-01-29 13:23:00,61.8,45.0,30.13,SE,138,0.0,-999.0,55,-99.99,,,0.00,weatherlink.com 1.10,2013-01-29 18:23:00,
2013-01-29 13:38:00,61.0,44.0,30.13,SE,139,1.0,-999.0,54,-99.99,,,0.00,weatherlink.com 1.10,2013-01-29 18:38:00,
2013-01-29 13:53:00,60.4,44.0,30.12,ESE,113,1.0,-999.0,56,-99.99,,,0.00,weatherlink.com 1.10,2013-01-29 18:53:00,
2013-01-29 14:08:00,60.1,45.0,30.12,ESE,119,1.0,-999.0,57,-99.99,,,0.00,weatherlink.com 1.10,2013-01-29 19:08:00,
2013-01-29 14:23:00,59.8,44.0,30.12,East,89,2.0,-999.0,57,-99.99,,,0.00,weatherlink.com 1.10,2013-01-29 19:23:00,
2013-01-29 14:38:00,59.6,44.0,30.11,SE,132,0.0,-999.0,56,-99.99,,,0.00,weatherlink.com 1.10,2013-01-29 19:38:00,
2013-01-29 14:53:00,59.5,44.0,30.11,ESE,121,1.0,-999.0,58,-99.99,,,0.00,weatherlink.com 1.10,2013-01-29 19:53:00,
2013-01-29 15:08:00,59.0,44.0,30.11,SE,133,1.0,-999.0,59,-99.99,,,0.00,weatherlink.com 1.10,2013-01-29 20:08:00,
2013-01-29 15:23:00,59.2,45.0,30.11,SW,220,1.0,-999.0,59,-99.99,,,0.00,weatherlink.com 1.10,2013-01-29 20:23:00,
2013-01-29 15:38:00,58.3,44.0,30.10,SSE,163,0.0,-999.0,60,-99.99,,,0.00,weatherlink.com 1.10,2013-01-29 20:38:00,
2013-01-29 15:53:00,57.6,45.0,30.10,ESE,119,2.0,-999.0,64,-99.99,,,0.00,weatherlink.com 1.10,2013-01-29 20:53:00,
2013-01-29 16:08:00,58.0,46.0,30.10,SE,134,0.0,-999.0,64,-99.99,,,0.00,weatherlink.com 1.10,2013-01-29 21:08:00,
2013-01-29 16:23:00,56.9,46.0,30.09,ESE,105,0.0,-999.0,66,-99.99,,,0.00,weatherlink.com 1.10,2013-01-29 21:23:00,
2013-01-29 16:38:00,56.2,46.0,30.11,ESE,112,0.0,-999.0,69,-99.99,,,0.00,weatherlink.com 1.10,2013-01-29 21:38:00,
2013-01-29 16:53:00,55.7,47.0,30.11,SE,135,1.0,-999.0,72,-99.99,,,0.00,weatherlink.com 1.10,2013-01-29 21:53:00,
2013-01-29 17:08:00,55.4,48.0,30.10,SE,145,1.0,-999.0,75,-99.99,,,0.00,weatherlink.com 1.10,2013-01-29 22:08:00,
2013-01-29 17:23:00,55.1,48.0,30.11,SE,146,0.0,-999.0,78,-99.99,,,0.00,weatherlink.com 1.10,2013-01-29 22:23:00,
2013-01-29 17:38:00,54.4,49.0,30.10,SE,146,0.0,-999.0,81,-99.99,,,0.00,weatherlink.com 1.10,2013-01-29 22:38:00,
2013-01-29 17:53:00,53.9,49.0,30.09,SE,146,0.0,-999.0,84,-99.99,,,0.00,weatherlink.com 1.10,2013-01-29 22:53:00,
2013-01-29 18:08:00,53.9,50.0,30.09,SE,146,0.0,-999.0,86,-99.99,,,0.00,weatherlink.com 1.10,2013-01-29 23:08:00,
2013-01-29 18:23:00,53.6,50.0,30.08,SE,146,0.0,-999.0,87,-99.99,,,0.00,weatherlink.com 1.10,2013-01-29 23:23:00,
2013-01-29 18:38:00,53.3,50.0,30.08,SE,146,0.0,-999.0,89,-99.99,,,0.00,weatherlink.com 1.10,2013-01-29 23:38:00,
2013-01-29 18:53:00,53.3,51.0,30.08,SE,129,0.0,-999.0,91,-99.99,,,0.00,weatherlink.com 1.10,2013-01-29 23:53:00,
2013-01-29 19:08:00,53.5,51.0,30.08,SE,132,0.0,-999.0,91,-99.99,,,0.00,weatherlink.com 1.10,2013-01-30 00:08:00,
2013-01-29 19:23:00,53.5,51.0,30.09,SE,140,3.0,-999.0,92,-99.99,,,0.00,weatherlink.com 1.10,2013-01-30 00:23:00,
2013-01-29 19:38:00,53.5,52.0,30.09,WNW,290,0.0,-999.0,93,-99.99,,,0.00,weatherlink.com 1.10,2013-01-30 00:38:00,
2013-01-29 19:53:00,53.3,52.0,30.08,ESE,104,0.0,-999.0,94,-99.99,,,0.00,weatherlink.com 1.10,2013-01-30 00:53:00,
2013-01-29 20:08:00,53.3,52.0,30.08,NW,317,0.0,-999.0,95,-99.99,,,0.00,weatherlink.com 1.10,2013-01-30 01:08:00,
2013-01-29 20:23:00,53.3,52.0,30.09,East,84,0.0,-999.0,95,-99.99,,,0.00,weatherlink.com 1.10,2013-01-30 01:23:00,
2013-01-29 20:38:00,53.2,52.0,30.09,South,171,0.0,-999.0,96,-99.99,,,0.00,weatherlink.com 1.10,2013-01-30 01:38:00,
2013-01-29 20:54:00,53.2,52.0,30.09,East,92,0.0,-999.0,96,-99.99,,,0.00,weatherlink.com 1.10,2013-01-30 01:54:00,
2013-01-29 21:08:00,53.3,52.0,30.09,NNW,333,0.0,-999.0,96,-99.99,,,0.00,weatherlink.com 1.10,2013-01-30 02:08:00,
2013-01-29 21:24:00,53.2,52.0,30.10,ENE,58,0.0,-999.0,96,-99.99,,,0.00,weatherlink.com 1.10,2013-01-30 02:24:00,
2013-01-29 21:39:00,53.5,53.0,30.10,South,176,0.0,-999.0,97,-99.99,,,0.00,weatherlink.com 1.10,2013-01-30 02:39:00,
2013-01-29 21:54:00,53.2,52.0,30.08,WSW,252,0.0,-999.0,97,-99.99,,,0.00,weatherlink.com 1.10,2013-01-30 02:54:00,
2013-01-29 22:09:00,53.3,53.0,30.07,SSW,203,0.0,-999.0,97,-99.99,,,0.00,weatherlink.com 1.10,2013-01-30 03:09:00,
2013-01-29 22:24:00,53.2,52.0,30.07,NNE,22,2.0,-999.0,97,-99.99,,,0.00,weatherlink.com 1.10,2013-01-30 03:24:00,
2013-01-29 22:39:00,53.2,52.0,30.04,ENE,64,1.0,-999.0,97,-99.99,,,0.00,weatherlink.com 1.10,2013-01-30 03:39:00,
2013-01-29 22:54:00,53.2,52.0,30.05,SSW,203,1.0,-999.0,97,-99.99,,,0.00,weatherlink.com 1.10,2013-01-30 03:54:00,
2013-01-29 23:09:00,53.2,52.0,30.04,West,262,0.0,-999.0,97,-99.99,,,0.00,weatherlink.com 1.10,2013-01-30 04:09:00,
2013-01-29 23:24:00,53.2,53.0,30.04,East,101,0.0,-999.0,98,-99.99,,,0.00,weatherlink.com 1.10,2013-01-30 04:24:00,
2013-01-29 23:39:00,53.2,53.0,30.03,NNE,15,0.0,-999.0,98,-99.99,,,0.00,weatherlink.com 1.10,2013-01-30 04:39:00,
2013-01-29 23:54:00,53.2,53.0,30.03,ENE,65,4.0,-999.0,98,-99.99,,,0.00,weatherlink.com 1.10,2013-01-30 04:54:00,